Weather in Igdir

Turkey     39°55′20″N   44°02′41″E
В апреле 2022 года жителям России запретили посещать сайт meteo.paraplan.net по решению Генеральной прокуратуры. Аудитория сайта уменьшилась в 10 раз. Владельцы сайта не видят смысла в поддержке погодного сервера в таких условиях. Сайт будет закрыт в октябре.
temp.,
°C
wind,
m/s
gust,
m/s
humid.,
%
clouds,
%
prec.,
mm/h
press.,
hPa
HPBL,
m
3 october, mon
mon300:00+17nnw1134100 0.0 100811
03:00+16n1138100 0.0 100811
06:00+15nw113999 0.0 100911
09:00+22ne1126100 0.0 1009445
12:00+27ne2218100 0.0 10071294
15:00+30ene32155 0.0 10051466
18:00+24se33216 0.0 100618
21:00+21nw22275 0.0 100813
4 october, tue
tue400:00+19nw11354 0.0 101011
03:00+17nnw11420 0.0 101111
06:00+16nw11460 0.0 101311
09:00+23ene11300 0.0 1014439
12:00+28e22180 0.0 10121241
15:00+31e33145 0.0 10102038
18:00+25e33190 0.0 101119
21:00+21wsw11220 0.0 101411
5 october, wed
wed500:00+20w22250 0.0 101613
03:00+18nne01260 0.0 101711
06:00+16nw11310 0.0 101811
09:00+24ne21180 0.0 1018439
12:00+30e22137 0.0 10151091
15:00+32ese561196 0.0 10133855
18:00+26ese441554 0.0 101341
21:00+21n112065 0.0 101511
6 october, thu
thu600:00+20nnw122252 0.0 101511
03:00+18nne11255 0.0 101511
06:00+17nw22260 0.0 101714
09:00+24nw33210 0.0 1016591
12:00+29n11134 0.0 10131316
15:00+31ene331173 0.0 10101437
18:00+26ene2215100 0.0 101012
21:00+20wnw58425 0.0 1014160
7 october, fri
fri700:00+19w69485 0.0 1016237
03:00+17w36555 0.0 1017112
06:00+16wnw33590 0.0 101853
09:00+21nw32410 0.0 1017895
12:00+25ne22310 0.0 10151381
15:00+27e11250 0.0 10121496
18:00+23ene33320 0.0 101332
21:00+18ene02520 0.0 101617